Regional Weather Roundup
Issued by NWS

Home | Current Version | Previous Version | Graphics & Text | Print | Product List | Glossary On
Versions: 1 2 3 4 5 6 7 8 9 10 11 12 13 14 15 16 17 18 19 20 21 22 23 24 25 26 27 28 29 30 31 32 33 34 35 36 37 38 39 40 41 42 43 44 45 46 47 48 49 50
935
ASUS45 KBOU 250810
RWRCO

WEATHER ROUNDUP FOR COLORADO
NATIONAL WEATHER SERVICE DENVER/BOULDER CO
200 AM MDT SUN SEP 25 2016

NOTE: "FAIR" INDICATES FEW OR NO CLOUDS BELOW 12000 FEET WITH NO
SIGNIFICANT WEATHER AND/OR OBSTRUCTIONS TO VISIBILITY.

COZ001>005-013-030-031-250900-
...NORTHWEST COLORADO...

CITY           SKY/WX    TMP DP  RH WIND       PRES   REMARKS
CRAIG          FAIR      37  34  89 CALM      30.45R
HAYDEN         CLOUDY    39  34  81 NE5       30.45R
MEEKER         FAIR      41  40  96 CALM      30.45R
MOUNT WERNER   NOT AVBL
STEAMBOAT SPGS CLOUDY    40  39  94 CALM      30.45R
WALDEN           N/A     36  34  93 N5        30.46S
$$

COZ006>008-011-250900-
...WEST CENTRAL VALLEYS...

CITY           SKY/WX    TMP DP  RH WIND       PRES   REMARKS
GRAND JUNCTION FAIR      48  41  76 W3        30.38R
MONTROSE       MOCLDY    48  41  76 CALM      30.41R
EAGLE          CLOUDY    45  41  87 E3        30.47R
RIFLE          CLOUDY    48  47  96 CALM      30.42R
DELTA          CLOUDY    52  44  72 CALM      30.40R
NUCLA          FAIR      46  36  66 N6        30.42R
$$

COZ017>023-064>068-250900-
...SOUTHWEST COLORADO...

CITY           SKY/WX    TMP DP  RH WIND       PRES   REMARKS
DURANGO        FAIR      38  31  76 N9        30.31R
CORTEZ         FAIR      40  35  83 NE6       30.30F
PAGOSA SPRINGS FAIR      38  29  71 CALM      30.36R
TELLURIDE      FAIR      38  32  78 S3        30.46S
WOLF CREEK PAS FAIR      27  23  86 MISG      30.53R
$$

COZ009-010-012-014-032>034-037-058>063-250900-
...CENTRAL COLORADO...

CITY           SKY/WX    TMP DP  RH WIND       PRES   REMARKS
ASPEN          CLOUDY    42  38  85 N5        30.45R
BUENA VISTA    FAIR      43  28  56 NW14      30.42R
COPPER MTN     SNOW      32  28  86 MISG      30.55R VSB 1/4
BERTHOUD PASS  CLOUDY    23  10  58 NW17G23   30.55R WCI   9
COTTONWOOD PAS MOCLDY    41  27  56 SW7       30.48R
GUNNISON       FAIR      39  36  87 CALM      30.44R
KREMMLING      CLOUDY    41  34  75 CALM      30.46R
LEADVILLE      CLOUDY    35  25  66 N10       30.47R WCI  27
SALIDA         FAIR      39  29  67 W12       30.49R
SUNLIGHT       CLOUDY    32  32 100 MISG      30.57R
WILKERSON PASS CLOUDY    32  23  69 E10       30.54R WCI  24
$$

COZ069>075-250900-
...SAN LUIS VALLEY/SANGRE DE CRISTO MOUNTAINS...

CITY           SKY/WX    TMP DP  RH WIND       PRES   REMARKS
ALAMOSA        FAIR      33  27  78 N6        30.39R WCI  28
LA VETA PASS   NOT AVBL
SAGUACHE       NOT AVBL
$$

COZ035-036-038>040-250900-
...NORTHERN COLORADO FRONT RANGE...

CITY           SKY/WX    TMP DP  RH WIND       PRES   REMARKS
DENVER INTL AP MOCLDY    43  31  62 SE6       30.35R
DMNS CITY PARK   N/A     51  35  55 E7        30.35R
AURORA         MOCLDY    44  33  65 S7        30.37R
FRONT RANGE AP MOCLDY    45  32  61 SE7       30.36R
ERIE MUNI ARPT CLOUDY    52  36  54 SE5       30.34R
BOULDER MUN AP CLOUDY    52  36  54 SE3       30.33R
CENTENNIAL     MOCLDY    48  33  56 SE3       30.37R
BROOMFIELD     CLOUDY    52  34  50 CALM      30.36R
FORT COLLINS   CLOUDY    52  36  54 N9        30.33R
LONGMONT       CLOUDY    55  36  49 S3        30.34R
$$

COZ041-046-047-076>085-087-088-250900-
...PIKES PEAK/PALMER DIVIDE AND SOUTHERN FOOTHILLS...

CITY           SKY/WX    TMP DP  RH WIND       PRES   REMARKS
COLO. SPRINGS  FAIR      47  33  58 NW9       30.38R
A. F. ACADEMY  MOCLDY    42  30  62 N12       30.38R
SCHRIEVER AFB  NOT AVBL
ELLICOTT       NOT AVBL
FALCON         MOCLDY    42  33  69 N7        30.39R
FORT CARSON    FAIR      48  33  55 N14       30.34R
LIMON          CLOUDY    48  35  60 NW9       30.34R
MONUMENT HILL  FAIR      36  32  87 CALM      30.41R
TRINIDAD       FAIR      47  27  45 W7        30.34R
$$

COZ042>045-048>051-090-091-250900-
...NORTHEAST COLORADO...

CITY           SKY/WX    TMP DP  RH WIND       PRES   REMARKS
GREELEY ARPT   FAIR      46  36  66 NE6       30.33R
AKRON          FAIR      43  36  76 NW13      30.30R
BURLINGTON     FAIR      50  39  66 N9        30.28R
WRAY           FAIR      46  37  71 W5        30.27R
STERLING       FAIR      41  36  81 SW6       30.29R
HOLYOKE        FAIR      52  41  66 W5        30.27R
FORT MORGAN    FAIR      45  35  66 NW10      30.32S
$$

COZ086-089-092>099-250900-
...SOUTHEAST COLORADO...

CITY           SKY/WX    TMP DP  RH WIND       PRES   REMARKS
PUEBLO         CLOUDY    55  35  47 N16       30.30R
LA JUNTA       FAIR      56  36  47 N15       30.27R
LAMAR          FAIR      56  40  55 N20G25    30.19R
SPRINGFIELD    NOT AVBL
$$




USA.gov is the U.S. government's official web portal to all federal, state and local government web resources and services.